IZ1WIY-2 Weather Reports


time (UTC)temp
C
wind
direction
speed
KPH
gust
KPH
rain 1hr
cm
rain 24hr
cm
rain mn
cm
humidity
%
barometer
mb
20260506155503 18 214 8.0 12.9 0.00 1.80 1.80 80 1009.9
20260506155003 18 214 9.7 12.9 0.00 1.80 1.80 80 1010.0
20260506154503 18 213 9.7 14.5 0.00 1.80 1.80 80 1009.9
20260506154003 18 213 9.7 14.5 0.00 1.80 1.80 80 1009.9
20260506153503 18 214 9.7 14.5 0.00 1.80 1.80 80 1009.9
20260506153003 18 212 9.7 12.9 0.00 1.80 1.80 80 1009.9
20260506152503 18 212 8.0 12.9 0.00 1.80 1.80 80 1009.9
20260506152003 18 215 8.0 12.9 0.00 1.80 1.80 80 1009.8
20260506151503 18 215 8.0 12.9 0.00 1.80 1.80 80 1009.8
20260506151003 18 212 8.0 12.9 0.00 1.80 1.80 79 1009.8
20260506150503 18 212 8.0 12.9 0.00 1.80 1.80 80 1009.8
20260506150003 18 214 8.0 12.9 0.00 1.80 1.80 80 1009.8
20260506145503 18 214 8.0 11.3 0.00 1.80 1.80 80 1009.8
20260506145003 18 212 8.0 11.3 0.00 1.80 1.80 80 1009.8
20260506144503 18 211 8.0 11.3 0.00 1.80 1.80 79 1009.7
20260506144003 19 212 8.0 11.3 0.00 1.80 1.80 80 1009.7
20260506143503 18 210 8.0 11.3 0.00 1.80 1.80 80 1009.7
20260506143003 18 208 8.0 11.3 0.00 1.80 1.80 80 1009.7
20260506142503 18 208 8.0 11.3 0.00 1.80 1.80 80 1009.7
20260506142003 18 208 8.0 11.3 0.00 1.80 1.80 80 1009.6
20260506141506 18 211 8.0 11.3 0.00 1.80 1.80 80 1009.6
20260506141003 18 211 8.0 11.3 0.00 1.80 1.80 80 1009.7
20260506140503 18 210 9.7 11.3 0.00 1.80 1.80 81 1009.6
20260506140004 18 212 9.7 12.9 0.00 1.80 1.80 81 1009.7
20260506135503 18 213 9.7 12.9 0.00 1.80 1.80 81 1009.7
20260506135003 18 214 9.7 12.9 0.00 1.80 1.80 81 1009.8
20260506134503 18 212 8.0 12.9 0.00 1.80 1.80 81 1009.8
20260506134003 18 211 6.4 12.9 0.00 1.80 1.80 81 1009.8
20260506133503 18 214 8.0 9.7 0.00 1.80 1.80 81 1009.9
20260506133003 18 213 8.0 12.9 0.00 1.80 1.80 81 1009.9
20260506132503 18 211 8.0 12.9 0.00 1.80 1.80 81 1010.0
20260506132003 19 211 8.0 12.9 0.00 1.80 1.80 81 1010.0
20260506131503 19 211 9.7 12.9 0.00 1.80 1.80 81 1010.0
20260506131003 18 210 9.7 14.5 0.00 1.80 1.80 81 1010.0
20260506130503 18 209 11.3 14.5 0.00 1.80 1.80 81 1010.0
20260506130004 18 209 11.3 14.5 0.00 1.80 1.80 81 1010.1
20260506125503 18 209 9.7 14.5 0.00 1.80 1.80 81 1010.0
20260506125003 18 209 9.7 17.7 0.00 1.80 1.80 81 1010.1
20260506124503 18 213 9.7 17.7 0.00 1.80 1.80 81 1010.1
20260506124003 18 211 9.7 12.9 0.00 1.80 1.80 80 1010.1
20260506123503 18 209 9.7 14.5 0.00 1.80 1.80 80 1010.0
20260506123003 18 210 8.0 14.5 0.00 1.80 1.80 79 1010.0
20260506122503 18 210 8.0 11.3 0.00 1.80 1.80 79 1010.0
20260506122003 18 210 9.7 12.9 0.00 1.80 1.80 78 1010.0
20260506121503 18 210 9.7 14.5 0.00 1.80 1.80 79 1010.0
20260506121003 18 210 9.7 14.5 0.00 1.80 1.80 80 1010.0
20260506120503 18 209 8.0 12.9 0.00 1.80 1.80 82 1010.0
20260506120004 18 208 8.0 12.9 0.00 1.80 1.80 82 1009.9
20260506115503 18 209 8.0 14.5 0.00 1.80 1.80 82 1009.9
20260506115003 18 209 8.0 14.5 0.00 1.80 1.80 82 1009.9
20260506114503 18 207 8.0 12.9 0.00 1.80 1.80 82 1009.9
20260506114003 18 207 8.0 12.9 0.00 1.80 1.80 82 1009.8
20260506113503 18 208 9.7 12.9 0.00 1.80 1.80 82 1009.9
20260506113003 18 209 11.3 16.1 0.00 1.80 1.80 82 1009.9
20260506112503 18 208 11.3 17.7 0.00 1.80 1.80 82 1009.9
20260506112003 18 207 11.3 17.7 0.00 1.80 1.80 83 1009.9
20260506111503 18 209 12.9 16.1 0.00 1.80 1.80 83 1009.8
20260506111003 18 213 12.9 17.7 0.00 1.80 1.80 83 1009.9
20260506110503 18 216 14.5 17.7 0.00 1.80 1.80 83 1009.8
20260506110004 18 219 14.5 20.9 0.00 1.80 1.80 83 1009.8
20260506105503 18 214 14.5 22.5 0.00 1.80 1.80 83 1009.8
20260506105003 18 207 14.5 22.5 0.00 1.80 1.80 83 1009.8
20260506104503 18 208 16.1 20.9 0.00 1.80 1.80 83 1009.7
20260506104003 18 211 16.1 20.9 0.00 1.80 1.80 83 1009.8
20260506103503 18 213 16.1 24.1 0.00 1.80 1.80 83 1009.8
20260506103003 18 210 17.7 24.1 0.00 1.80 1.80 83 1009.8
20260506102503 18 208 17.7 24.1 0.00 1.80 1.80 83 1009.8
20260506102003 18 213 17.7 24.1 0.00 1.80 1.80 84 1009.8
20260506101503 18 212 17.7 27.4 0.00 1.80 1.80 84 1009.8
20260506101003 18 208 17.7 27.4 0.00 1.80 1.80 84 1009.7
20260506100503 18 208 17.7 25.7 0.00 1.80 1.80 84 1009.7
20260506100004 18 209 17.7 24.1 0.00 1.80 1.80 84 1009.7
20260506095503 18 213 17.7 24.1 0.00 1.80 1.80 84 1009.6
20260506095003 18 213 19.3 27.4 0.00 1.80 1.80 84 1009.7
20260506094503 18 212 20.9 29.0 0.00 1.80 1.80 85 1009.6
20260506094004 18 212 20.9 29.0 0.00 1.80 1.80 85 1009.5
20260506093503 18 208 19.3 30.6 0.00 1.80 1.80 85 1009.5
20260506093003 18 205 17.7 30.6 0.00 1.80 1.80 85 1009.4
20260506092503 18 204 17.7 25.7 0.00 1.80 1.80 85 1009.3
20260506092004 18 204 17.7 25.7 0.00 1.80 1.80 85 1009.2
20260506091503 18 204 17.7 27.4 0.00 1.80 1.80 85 1009.1
20260506091003 18 203 17.7 33.8 0.00 1.80 1.80 85 1009.2
20260506090504 18 201 17.7 33.8 0.00 1.80 1.80 85 1009.2
20260506090004 18 205 17.7 29.0 0.00 1.80 1.80 85 1009.2
20260506085503 18 208 17.7 29.0 0.00 1.80 1.80 85 1009.0
20260506085003 18 207 17.7 27.4 0.00 1.80 1.80 86 1009.2
20260506084503 18 207 17.7 25.7 0.00 1.80 1.80 86 1009.1
20260506084003 18 208 19.3 25.7 0.00 1.80 1.80 86 1009.0
20260506083503 18 207 20.9 32.2 0.00 1.80 1.80 86 1009.0
20260506083003 18 205 19.3 33.8 0.00 1.80 1.80 86 1008.9
20260506082503 17 204 16.1 40.2 0.00 1.80 1.80 86 1009.0
20260506082003 17 201 17.7 40.2 0.03 1.80 1.80 87 1008.8
20260506081503 18 197 19.3 27.4 0.03 1.80 1.80 87 1008.5
20260506081003 17 194 19.3 30.6 0.03 1.80 1.80 87 1008.5
20260506080503 17 199 19.3 30.6 0.03 1.80 1.80 87 1008.6
20260506073503 18 226 20.9 32.2 0.03 1.80 1.80 87 1008.5
20260506073003 17 230 19.3 32.2 0.03 1.80 1.80 87 1008.5
20260506072503 18 226 17.7 32.2 0.03 1.80 1.80 87 1008.6
20260506072003 18 228 17.7 30.6 0.00 1.78 1.78 86 1008.5
20260506071503 18 226 19.3 32.2 0.00 1.78 1.78 86 1008.5
20260506071003 18 220 19.3 32.2 0.00 1.78 1.78 87 1008.4
20260506070503 18 221 17.7 35.4 0.00 1.78 1.78 86 1008.6
20260506062503 17 239 11.3 20.9 0.36 1.83 1.78 86 1008.5
20260506061503 17 237 12.9 22.5 0.64 1.85 1.78 86 1008.5
20260506061003 17 234 14.5 25.7 0.99 1.85 1.78 86 1008.4
20260506060503 17 234 16.1 25.7 1.09 1.85 1.78 86 1008.2
20260506051003 17 249 6.4 19.3 0.20 1.27 0.79 86 1008.3
20260506050503 17 250 8.0 22.5 0.10 1.19 0.69 86 1008.3
20260506045003 17 230 12.9 27.4 0.15 1.32 0.69 86 1008.2
20260506044503 17 235 14.5 27.4 0.08 1.30 0.61 86 1008.1
20260506044003 17 244 16.1 25.7 0.13 1.32 0.58 86 1008.2
20260506043503 17 239 16.1 32.2 0.13 1.40 0.58 86 1008.1
20260506043003 17 238 16.1 32.2 0.13 1.42 0.58 86 1008.2
20260506042503 17 242 14.5 27.4 0.13 1.45 0.58 86 1008.0
20260506042003 17 240 12.9 27.4 0.13 1.47 0.58 86 1008.1
20260506041503 17 238 11.3 25.7 0.13 1.55 0.58 86 1008.0
20260506041003 17 237 12.9 24.1 0.13 1.55 0.58 86 1008.1
20260506040503 17 225 16.1 20.9 0.13 1.55 0.58 86 1008.2
20260506035503 17 208 12.9 32.2 0.08 1.52 0.56 86 1008.4
20260506035004 17 207 11.3 32.2 0.08 1.55 0.53 86 1008.4
20260506034503 17 216 12.9 19.3 0.08 1.55 0.53 86 1008.5
20260506034003 17 219 16.1 20.9 0.00 1.50 0.46 85 1008.5
20260506033503 17 221 16.1 25.7 0.00 1.52 0.46 86 1008.5
20260506033004 17 229 17.7 29.0 0.00 1.52 0.46 86 1008.6
20260506032503 17 229 19.3 29.0 0.00 1.52 0.46 86 1008.4
20260506032003 17 225 17.7 32.2 0.00 1.52 0.46 86 1008.5
20260506031503 17 226 14.5 32.2 0.00 1.52 0.46 86 1008.6
20260506031003 17 230 14.5 24.1 0.00 1.52 0.46 86 1008.7
20260506030503 17 236 16.1 32.2 0.00 1.52 0.46 86 1008.6
20260506030004 17 232 11.3 32.2 0.03 1.52 0.46 86 1008.6
20260506025503 17 231 6.4 25.7 0.03 1.55 0.46 86 1008.7
20260506025003 17 231 3.2 22.5 0.05 1.55 0.46 86 1008.4
20260506024503 17 229 1.6 16.1 0.13 1.55 0.46 86 1008.5
20260506024003 16 217 0.0 14.5 0.13 1.57 0.46 86 1008.5
20260506023503 16 339 0.0 3.2 0.20 1.60 0.46 86 1008.6
20260506023003 16 332 0.0 3.2 0.23 1.63 0.46 85 1008.3
20260506022503 16 250 1.6 6.4 0.23 1.65 0.46 85 1008.5
20260506022003 16 305 1.6 6.4 0.33 1.70 0.46 85 1008.6
20260506021503 15 336 1.6 8.0 0.41 1.73 0.46 85 1008.5
20260506021003 15 335 1.6 8.0 0.41 1.75 0.46 85 1008.7
20260506020503 15 313 1.6 4.8 0.41 1.75 0.46 85 1008.8
20260506020004 15 315 1.6 6.4 0.38 1.78 0.43 85 1008.9
20260506015503 15 11 1.6 6.4 0.38 1.80 0.43 85 1009.1
20260506015003 15 12 1.6 6.4 0.36 1.83 0.43 85 1009.2
20260506014504 16 346 1.6 8.0 0.28 1.75 0.33 85 1009.3
20260506014003 16 344 0.0 8.0 0.28 1.78 0.33 85 1009.2
20260506013503 16 0 0.0 4.8 0.20 1.73 0.25 85 1009.4
20260506013003 16 0 0.0 1.6 0.18 1.73 0.23 85 1009.4
20260506012503 16 0 0.0 0.0 0.15 1.73 0.23 85 1009.5
20260506012003 16 0 0.0 0.0 0.05 1.65 0.13 85 1009.8
20260506011503 16 13 0.0 1.6 0.00 1.60 0.05 85 1009.5
20260506011003 16 7 1.6 4.8 0.00 1.63 0.05 85 1009.5
20260506010503 16 349 1.6 4.8 0.00 1.63 0.05 85 1009.6
20260506010003 16 355 1.6 4.8 0.00 1.65 0.05 85 1009.6
20260506005503 16 359 0.0 4.8 0.00 1.65 0.05 85 1009.7
20260506005003 16 301 1.6 4.8 0.00 1.68 0.05 85 1009.6
20260506004504 16 296 3.2 4.8 0.03 1.68 0.05 85 1009.7
20260506004003 16 221 4.8 9.7 0.03 1.70 0.05 84 1009.9
20260506003503 16 211 4.8 9.7 0.03 1.70 0.05 85 1010.0
20260506003003 16 203 3.2 12.9 0.03 1.70 0.05 85 1010.1
20260506002503 16 201 1.6 12.9 0.03 1.70 0.05 85 1010.0
20260506002003 16 209 1.6 6.4 0.05 1.70 0.05 85 1010.1
20260506001503 16 205 1.6 9.7 0.05 1.70 0.05 85 1009.9
20260506001003 17 218 1.6 9.7 0.05 1.70 0.05 85 1010.0
20260506000503 16 258 6.4 4.8 0.05 1.70 0.05 85 1010.0
20260506000003 16 237 11.3 20.9 0.05 1.70 0.05 85 1010.0
20260505235503 16 229 12.9 20.9 0.05 1.70 0.05 85 1010.3
20260505235003 17 213 12.9 19.3 0.05 1.70 0.05 85 1010.3
20260505234503 17 204 12.9 19.3 0.05 1.68 0.05 84 1010.5
20260505234003 17 204 11.3 20.9 0.05 1.68 0.05 84 1010.4
20260505233503 17 208 8.0 22.5 0.05 1.68 0.05 83 1010.4
20260505233003 18 213 4.8 22.5 0.05 1.68 0.05 83 1010.3
20260505232503 18 216 3.2 12.9 0.05 1.68 0.05 82 1010.4
20260505232003 18 226 3.2 9.7 0.03 1.65 0.03 82 1010.4
20260505231504 18 311 0.0 6.4 0.03 1.65 0.03 82 1010.4
20260505231003 17 0 0.0 6.4 0.03 1.65 0.03 81 1010.8
20260505230503 17 0 0.0 1.6 0.00 1.65 0.00 80 1010.8
20260505230004 17 0 0.0 1.6 0.00 1.65 0.00 80 1010.9
20260505225503 17 0 0.0 6.4 0.00 1.65 0.00 80 1011.0
20260505225003 17 351 0.0 6.4 0.00 1.65 0.00 80 1010.9
20260505224503 17 346 1.6 3.2 0.00 1.65 0.00 80 1011.2
20260505224003 17 344 1.6 4.8 0.00 1.65 0.00 81 1011.3
20260505223503 17 344 0.0 4.8 0.00 1.65 0.00 81 1011.4
20260505223003 17 0 0.0 4.8 0.00 1.65 0.00 81 1011.3
20260505222503 17 0 0.0 0.0 0.00 1.65 0.00 81 1011.5
20260505222003 17 0 0.0 0.0 0.00 1.65 0.00 81 1011.5
20260505221503 17 0 0.0 0.0 0.00 1.65 0.00 81 1011.6
20260505221003 16 0 0.0 0.0 0.00 1.65 0.00 81 1011.5
20260505220503 16 343 1.6 4.8 0.00 1.65 0.00 81 1011.5
20260505220008 16 347 1.6 9.7 0.00 1.65 0.00 81 1011.4
20260505215503 16 349 1.6 9.7 0.00 1.65 1.65 81 1011.4
20260505215003 16 8 1.6 6.4 0.00 1.65 1.65 82 1011.5
20260505214503 16 19 3.2 9.7 0.00 1.65 1.65 82 1011.6
20260505214003 16 19 4.8 12.9 0.00 1.65 1.65 82 1011.5
20260505213503 16 22 4.8 12.9 0.00 1.65 1.65 82 1011.8
20260505213003 16 30 4.8 8.0 0.00 1.65 1.65 82 1011.9
20260505212503 16 33 4.8 8.0 0.00 1.65 1.65 82 1011.9
20260505212003 16 26 3.2 8.0 0.00 1.65 1.65 82 1011.9
20260505211503 16 18 1.6 8.0 0.00 1.65 1.65 82 1011.9
20260505211003 16 20 3.2 8.0 0.00 1.65 1.65 82 1011.9
20260505210503 16 9 3.2 8.0 0.00 1.65 1.65 82 1011.9
20260505210003 16 9 3.2 9.7 0.00 1.65 1.65 82 1011.9
20260505205503 16 22 3.2 9.7 0.00 1.65 1.65 82 1011.9
20260505205003 16 18 3.2 9.7 0.00 1.65 1.65 82 1012.0
20260505204503 16 15 3.2 9.7 0.00 1.65 1.65 82 1012.1
20260505204003 16 24 3.2 8.0 0.00 1.65 1.65 82 1012.1
20260505203503 16 29 4.8 8.0 0.00 1.65 1.65 82 1012.1
20260505203003 16 34 6.4 11.3 0.00 1.65 1.65 82 1012.1
20260505202503 16 29 6.4 11.3 0.00 1.65 1.65 82 1012.2
20260505202003 16 26 4.8 11.3 0.00 1.65 1.65 82 1012.2
20260505201503 16 25 4.8 11.3 0.00 1.65 1.65 82 1012.3
20260505201003 16 20 4.8 8.0 0.00 1.65 1.65 82 1012.3
20260505200503 16 23 6.4 11.3 0.00 1.65 1.65 82 1012.3
20260505200004 16 29 6.4 11.3 0.00 1.65 1.65 82 1012.3
20260505195503 16 30 4.8 11.3 0.00 1.65 1.65 82 1012.3
20260505195003 16 31 4.8 9.7 0.00 1.65 1.65 82 1012.3
20260505194503 16 26 6.4 11.3 0.00 1.65 1.65 81 1012.3
20260505194003 16 25 6.4 11.3 0.00 1.65 1.65 81 1012.2
20260505193503 16 32 4.8 9.7 0.00 1.65 1.65 81 1012.2
20260505193003 17 31 3.2 9.7 0.00 1.65 1.65 81 1012.1
20260505192503 17 27 3.2 6.4 0.00 1.65 1.65 81 1012.0
20260505192003 17 30 3.2 6.4 0.00 1.65 1.65 81 1012.0
20260505191503 17 18 3.2 8.0 0.00 1.65 1.65 80 1012.0
20260505191003 17 333 3.2 8.0 0.00 1.65 1.65 80 1012.1
20260505190503 17 308 1.6 6.4 0.00 1.65 1.65 80 1011.9
20260505190004 17 297 0.0 4.8 0.00 1.65 1.65 80 1011.9
20260505185503 18 257 0.0 3.2 0.00 1.65 1.65 80 1011.9
20260505185003 18 256 1.6 3.2 0.00 1.65 1.65 80 1011.9
20260505184503 18 237 3.2 9.7 0.00 1.65 1.65 80 1011.8
20260505184003 18 238 4.8 9.7 0.00 1.65 1.65 80 1011.9
20260505183503 18 241 4.8 11.3 0.00 1.65 1.65 80 1012.0
20260505183003 18 239 4.8 11.3 0.00 1.65 1.65 80 1012.0
20260505182503 18 238 4.8 9.7 0.00 1.65 1.65 80 1011.9
20260505182003 18 224 6.4 9.7 0.00 1.65 1.65 80 1011.8
20260505181503 18 209 6.4 9.7 0.00 1.65 1.65 80 1011.8
20260505181003 18 203 8.0 11.3 0.00 1.65 1.65 80 1011.9
20260505180503 18 201 8.0 11.3 0.00 1.65 1.65 79 1011.8
20260505180003 18 197 8.0 14.5 0.00 1.65 1.65 79 1011.9
20260505175503 18 198 8.0 14.5 0.00 1.65 1.65 79 1012.0
20260505175003 18 200 8.0 14.5 0.00 1.65 1.65 79 1011.9
20260505174503 18 202 8.0 14.5 0.00 1.65 1.65 79 1011.9
20260505174003 18 201 9.7 14.5 0.00 1.65 1.65 80 1011.9
20260505173503 18 196 9.7 14.5 0.00 1.65 1.65 80 1011.9
20260505173003 18 198 11.3 17.7 0.00 1.65 1.65 80 1012.0
20260505172503 18 201 11.3 17.7 0.00 1.65 1.65 80 1011.9
20260505172003 18 201 11.3 17.7 0.00 1.65 1.65 80 1011.8
20260505171503 18 201 11.3 16.1 0.00 1.65 1.65 79 1011.9
20260505171003 18 203 11.3 17.7 0.00 1.65 1.65 79 1011.8
20260505170503 18 207 11.3 17.7 0.00 1.65 1.65 79 1011.8
20260505170003 18 214 11.3 17.7 0.00 1.65 1.65 79 1011.6
20260505165504 18 218 11.3 16.1 0.00 1.65 1.65 79 1011.7
20260505165003 18 223 9.7 16.1 0.00 1.65 1.65 80 1011.7
20260505164503 18 225 9.7 16.1 0.00 1.65 1.65 80 1011.7
20260505164003 18 229 11.3 16.1 0.00 1.65 1.65 80 1011.6
20260505163507 18 220 11.3 17.7 0.00 1.65 1.65 80 1011.7
20260505163003 18 214 9.7 17.7 0.00 1.65 1.65 80 1011.8
20260505162503 18 230 9.7 17.7 0.00 1.65 1.65 80 1011.8
20260505162003 18 227 9.7 16.1 0.00 1.65 1.65 80 1011.8
20260505161503 18 221 8.0 16.1 0.00 1.65 1.65 80 1011.8
20260505161003 18 233 8.0 14.5 0.00 1.65 1.65 80 1011.9
20260505160503 18 234 9.7 14.5 0.00 1.65 1.65 80 1011.9